Hourly Data Report for May 06, 2012

All times are specified in Local Standard Time (LST). Add 1 hour to adjust for Daylight Saving Time where and when it is observed.

HAMILTON A
ONTARIO

43°10'25.000" N
79°56'06.000" W
237.70 m
6153193
71263
YHM

Download Data

Hourly Data (May 2012)
Hourly Data Report for May 6, 2012
Temp Definition
°C
Dew Point Temp Definition
°C
Rel Hum Definition
%
Wind Dir Definition
10's deg

Wind Spd Definition
km/h
Visibility Definition
km
Stn Press Definition
kPa
Hmdx Definition


Wind Chill Definition


Weather Definition


TIME
00:00 6.8 0.9 66 4 12 10.0 99.14     LegendNANA
01:00 6.2 -0.3 63 3 13 10.0 99.11     Clear
02:00 6.8 0.9 66 2 10 10.0 99.09     LegendNANA
03:00 5.6 0.8 71 1 7 10.0 99.07     LegendNANA
04:00 6.1 1.3 71 3 11 10.0 99.09     Mainly Clear
05:00 6.0 0.8 69 3 10 10.0 99.11     LegendNANA
06:00 6.8 1.7 70 3 10 10.0 99.14     LegendNANA
07:00 10.6 3.7 62 4 14 10.0 99.17     Mainly Clear
08:00 13.0 2.0 47 5 17 10.0 99.22     LegendNANA
09:00 14.0 1.0 41 5 19 10.0 99.23     LegendNANA
10:00 15.1 -0.2 35 3 18 10.0 99.27     Mainly Clear
11:00 16.2 -1.8 29 6 23 10.0 99.24     LegendNANA
12:00 17.1 -2.0 27 7 23 10.0 99.26     LegendNANA
13:00 17.1 -0.5 30 5 21 10.0 99.21     Mostly Cloudy
14:00 17.5 -2.6 25 6 25 10.0 99.14     LegendNANA
15:00 18.0 -1.7 26 6 23 10.0 99.15     LegendNANA
16:00 17.2 0.0 31 5 19 10.0 99.17     Mostly Cloudy
17:00 17.1 -0.1 31 8 17 10.0 99.17     LegendNANA
18:00 15.5 -0.6 33 5 18 10.0 99.08     LegendNANA
19:00 12.7 -0.5 40 5 18 10.0 99.02     Mostly Cloudy
20:00 12.9 -0.7 39 6 17 10.0 98.90     LegendNANA
21:00 12.5 0.6 44 4 16 10.0 99.00     Rain Showers
22:00 11.1 3.4 59 4 17 10.0 99.02     Rain Showers
23:00 11.1 1.9 53 4 16 10.0 99.02     Rain Showers

Notes on Data Quality.

Legend

  • E = Estimated
  • M = Missing
  • NA = Not Available
Date modified: